Tracking 31027 objects as of 19-Jul-2025
HD Live streaming from Space Station
objects crossing your sky now

EUTELSAT 1-F2 (ECS 2)

Track EUTELSAT 1-F2 (ECS 2) now!
EUTELSAT 1-F2 (ECS 2) is classified as:


NORAD ID: 15158
Int'l Code: 1984-081A
Perigee: 36,164.3 km
Apogee: 36,261.6 km
Inclination: 12.9 °
Period: 1,457.6 minutes
Semi major axis: 42583 km
RCS: 5.0119 m2 (large)
Launch date: August 4, 1984
Source: European Telecommunications Satellite Organization (EUTE)
Launch site: FRENCH GUIANA (FRGUI)
Your satellite tracking list
IRIDIUM 33 DEB
Track 1 satellite(s)




NASA's NSSDC Master Catalog

Two Line Element Set (TLE):
1 15158U 84081A   25199.87683971  .00000039  00000-0  00000-0 0  9998
2 15158  12.8740 335.1591 0011417 208.5253 136.2443  0.98794785113960
Source of the keplerian elements: AFSPC